OpenBCM V1.13 (Linux)

Packet Radio Mailbox

DB0FHN

[JN59NK Nuernberg]

 Login: GUEST





  
LU9DCE > KEP      03.12.19 20:33l 246 Lines 12052 Bytes #999 (0) @ WW
BID : 4378_LU9DCE
Read: DF7EAV DJ6UX GUEST
Subj: TLE 03 12
Path: DB0FHN<DB0FFL<OE5XBL<OE5XBR<OE1XAB<HG8LXL<XE1FH<W9ABA<KE0GB<VA7RBP<
      VE7MOV<LU9DCE
Sent: 191203/1600Z 4378@LU9DCE.TOR.BA.ARG.SOAM LinBPQ6.0.19

            __    _  _  ___  ____   ___  ____    ____  ____  ____
           (  )  / )( \/ _ \(    \ / __)(  __)  (  _ \(  _ \/ ___)
           / (_/\) \/ (\__  )) D (( (__  ) _)    ) _ ( ) _ (\___ \
           \____/\____/(___/(____/ \___)(____)  (____/(____/(____/
               ESTACION DE PACKET RADIO - BUENOS AIRES (GF05OM)
                   BOLETINES INFORMATIVOS PROGRAMADOS (BIP)
                  SLACKWARE LINUX - HELLOCODELINUX@GMAIL.COM
+----------------------------------------------------------------------------+
OSCAR 7
1  7530U 74089B   19336.82229265 -.00000029 +00000-0 +10210-3 0  9990
2  7530 101.7705 302.9127 0012437 025.6605 088.7482 12.53641009061222
OSCAR 11 (UoSAT 2)
1 14781U 84021B   19336.81737809 +.00000059 +00000-0 +13311-4 0  9998
2 14781 097.6003 353.5321 0009701 125.2872 234.9251 14.83124612902531
OSCAR 19 (LUSAT)
1 20442U 90005G   19336.55528399 +.00000014 +00000-0 +21478-4 0  9995
2 20442 098.6678 278.4061 0012224 022.7764 337.3960 14.32939371560212
EYESAT A
1 22825U 93061C   19336.57966101 -.00000016 +00000-0 +11799-4 0  9994
2 22825 098.9162 329.1333 0007599 228.6799 131.3729 14.30072431365536
ITAMSAT
1 22826U 93061D   19336.47246525 -.00000002 +00000-0 +17044-4 0  9999
2 22826 098.9103 328.9942 0008261 216.8787 143.1827 14.30406935365741
RADIO ROSTO
1 23439U 94085A   19336.87489736 -.00000042 +00000-0 +19876-4 0  9993
2 23439 064.8146 205.7669 0145716 080.4699 281.2658 11.27569053026747
JAS 2
1 24278U 96046B   19336.81192183 +.00000006 +00000-0 +41083-4 0  9999
2 24278 098.5622 107.7606 0350593 166.6721 194.3979 13.53094904150150
TECHSAT 1B
1 25397U 98043D   19336.53623403 -.00000000 +00000-0 +19149-4 0  9997
2 25397 098.7065 274.7739 0000226 308.8611 051.2547 14.23675287111393
ISS (ZARYA)
1 25544U 98067A   19336.91239465 -.00004070 +00000-0 -63077-4 0  9991
2 25544 051.6431 244.7958 0006616 354.0287 044.0565 15.50078860201433
PCSAT
1 26931U 01043C   19336.52505046 -.00000014 +00000-0 +26552-4 0  9998
2 26931 067.0513 293.1630 0007300 264.9211 095.1057 14.30560461948765
SAUDISAT 1C
1 27607U 02058C   19336.88059543 -.00000047 +00000-0 +14236-4 0  9993
2 27607 064.5554 258.4310 0070884 223.6932 135.8547 14.75592671911573
CUTE-1
1 27844U 03031E   19336.67251067 +.00000044 +00000-0 +39628-4 0  9998
2 27844 098.6840 342.3897 0008812 267.7274 092.2895 14.22208611851985
CUBESAT XI 4
1 27848U 03031J   19336.85311326 +.00000022 +00000-0 +30077-4 0  9992
2 27848 098.6913 343.0999 0008692 280.4254 079.5944 14.21799718851869
MOZHAYETS 4
1 27939U 03042A   19336.90537519 +.00000057 +00000-0 +18883-4 0  9994
2 27939 098.0640 109.7072 0011812 256.5903 103.3977 14.66821305865058
CUBESAT XI 5
1 28895U 05043F   19336.85712667 +.00000111 +00000-0 +30252-4 0  9997
2 28895 097.9823 114.1070 0016875 179.8348 180.2863 14.63716553751702
CUTE-1.7+APD II
1 32785U 08021C   19336.82036693 +.00000199 +00000-0 +27045-4 0  9996
2 32785 097.5587 328.7348 0014498 071.0399 289.2388 14.88382842628473
DELFI C3
1 32789U 08021G   19336.86499233 +.00001177 +00000-0 +81931-4 0  9998
2 32789 097.4451 021.3314 0010588 272.7055 087.2961 15.07298375632040
SEEDS
1 32791U 08021J   19336.82466847 +.00000365 +00000-0 +42327-4 0  9996
2 32791 097.5324 334.8461 0014369 045.8351 314.4047 14.90923422628939
YUBELEINY
1 32953U 08025A   19336.89005863 +.00000021 +00000-0 +75656-4 0  9994
2 32953 082.5068 040.7805 0020273 124.2987 236.0017 12.43092523523082
PRISM (HITOMI)
1 33493U 09002B   19336.86280929 +.00000394 +00000-0 +39892-4 0  9990
2 33493 098.1278 264.1927 0015079 353.9504 006.1532 14.96823035590148
KKS-1 (KISEKI)
1 33499U 09002H   19336.90914953 +.00000071 +00000-0 +18504-4 0  9991
2 33499 098.3347 180.8513 0009935 040.3072 319.8871 14.75484585583455
SWISSCUBE
1 35932U 09051B   19336.48610867 +.00000112 +00000-0 +36293-4 0  9990
2 35932 098.5995 147.5071 0007912 021.9377 338.2157 14.56335426541011
BEESAT
1 35933U 09051C   19336.75402133 +.00000103 +00000-0 +34230-4 0  9995
2 35933 098.6008 149.6064 0006363 035.6304 324.5317 14.56418324541121
ITUPSAT 1
1 35935U 09051E   19336.77088802 +.00000069 +00000-0 +27054-4 0  9999
2 35935 098.6117 149.8477 0008617 031.2843 328.8865 14.55571521540917
XIWANG-1 (HOPE-1)
1 36122U 09072B   19336.79385950 -.00000028 +00000-0 +37374-4 0  9999
2 36122 100.0800 331.3626 0007044 323.0836 036.9793 13.16352481478863
TISAT 1
1 36799U 10035E   19336.90330011 +.00000236 +00000-0 +29845-4 0  9995
2 36799 098.1744 134.8384 0011028 256.1175 103.8815 14.91216768509486
JUGNU
1 37839U 11058B   19336.87699748 +.00000300 +00000-0 +18481-4 0  9994
2 37839 019.9624 040.9319 0019069 010.6960 144.9849 14.12665928420814
SRMSAT
1 37841U 11058D   19336.71696311 +.00000281 +00000-0 +90452-5 0  9990
2 37841 019.9715 102.1324 0011734 231.6216 157.4623 14.10644449420211
M-CUBED/EXP-1 PRIME
1 37855U 11061F   19336.80116699 +.00001208 +00000-0 +67856-4 0  9996
2 37855 101.7246 318.2681 0172321 301.3746 057.0706 15.05847208441453
HORYU 2
1 38340U 12025D   19336.84533685 +.00000129 +00000-0 +26868-4 0  9998
2 38340 098.3097 020.2809 0010506 315.7429 044.2938 14.75782136395405
STRAND 1
1 39090U 13009E   19336.83965973 +.00000029 +00000-0 +25155-4 0  9999
2 39090 098.4701 179.8673 0009673 146.4886 213.6913 14.35107871354346
SOMP
1 39134U 13015E   19336.90204513 +.00000832 +00000-0 +46706-4 0  9996
2 39134 064.8619 198.5658 0037682 276.5178 083.1660 15.20545259365635
BEESAT 3
1 39135U 13015F   19336.66304199 +.00000614 +00000-0 +39672-4 0  9993
2 39135 064.8663 220.0129 0041609 279.6824 079.9603 15.17769308365195
BEESAT 2
1 39136U 13015G   19336.69798281 +.00000792 +00000-0 +49307-4 0  9999
2 39136 064.8692 224.2166 0030527 285.1261 074.6488 15.17187345365119
CUBEBUG 1
1 39153U 13018D   19336.75711241 +.00000183 +00000-0 +30803-4 0  9994
2 39153 097.9820 073.9801 0017270 021.7620 338.4322 14.80633135356453
ZACUBE
1 39417U 13066B   19336.84042541 +.00000167 +00000-0 +27370-4 0  9997
2 39417 097.5615 340.9409 0058273 204.6399 155.2028 14.81186512325781
TRITON 1
1 39427U 13066M   19336.73711921 +.00000181 +00000-0 +36911-4 0  9998
2 39427 097.6988 303.9898 0113615 351.4325 008.4939 14.67914292322650
GOMX 1
1 39430U 13066Q   19336.92901008 +.00000219 +00000-0 +48194-4 0  9998
2 39430 097.7683 282.6445 0152401 086.9628 274.9007 14.59317044320994
HUMSAT D
1 39433U 13066T   19336.84831883 +.00000325 +00000-0 +36766-4 0  9995
2 39433 097.5336 017.3451 0032244 102.5380 257.9450 14.92316214326828
CUBEBUG 2
1 39440U 13066AA  19336.53251161 +.00000170 +00000-0 +30786-4 0  9998
2 39440 097.6135 325.2160 0078732 262.9286 096.2966 14.75925058323387
FUNCUBE 1
1 39444U 13066AE  19336.74801547 +.00000229 +00000-0 +34457-4 0  9998
2 39444 097.5579 342.9509 0057564 198.0040 161.9136 14.82020076324083
UWE-3
1 39446U 13066AG  19336.52167441 +.00000150 +00000-0 +26705-4 0  9994
2 39446 097.5869 332.3725 0068755 234.9950 124.4796 14.78458904323326
SPROUT
1 39770U 14029E   19336.73452079 +.00000647 +00000-0 +77457-4 0  9992
2 39770 097.8910 079.0234 0007885 256.3171 103.7190 14.87525511299662
UNISAT 6
1 40012U 14033C   19336.87294832 +.00000130 +00000-0 +26848-4 0  9999
2 40012 097.7324 196.0688 0056957 278.7052 080.7709 14.74039659293319
DUCHIFAT 1
1 40021U 14033M   19336.75162602 +.00000466 +00000-0 +53239-4 0  9991
2 40021 097.9308 261.9342 0011915 214.9381 145.1055 14.90751996296433
QB50P1
1 40025U 14033R   19336.76257185 +.00000189 +00000-0 +26076-4 0  9998
2 40025 097.9086 256.1744 0011326 225.7382 134.2906 14.89030812295673
CHUBUSAT 1
1 40300U 14070C   19336.77709747 +.00000524 +00000-0 +25655-4 0  9997
2 40300 097.3132 046.6063 0019508 184.1287 324.2390 15.22272439281431
NUDT-PHONESAT
1 40900U 15049B   19336.91648723 +.00001767 +00000-0 +77272-4 0  9994
2 40900 097.4357 344.6520 0011764 324.4656 121.8852 15.23347402233111
ZDPS 2A
1 40901U 15049C   19336.86518462 +.00000796 +00000-0 +42468-4 0  9995
2 40901 097.4609 340.3076 0013194 348.6881 107.1390 15.17959750232591
ZDPS 2B
1 40902U 15049D   19336.95965479 +.00000919 +00000-0 +48657-4 0  9993
2 40902 097.4568 337.7653 0013102 345.2511 038.2867 15.17857158232580
XW-2A
1 40903U 15049E   19336.88450983 +.00001483 +00000-0 +36301-4 0  9995
2 40903 097.3168 020.4426 0011663 258.4349 274.8276 15.42381102236017
KAITUO 1A
1 40904U 15049F   19336.92004013 +.00000524 +00000-0 +31086-4 0  9990
2 40904 097.4716 336.1237 0014528 355.0217 092.7630 15.15523915232327
OBJECT G
1 40905U 15049G   19336.85562652 +.00000544 +00000-0 +33122-4 0  9996
2 40905 097.4774 333.4412 0015439 350.5624 094.0362 15.14406886232177
XW-2C
1 40906U 15049H   19336.94103962 +.00000425 +00000-0 +25646-4 0  9992
2 40906 097.4718 336.3084 0014341 345.8127 042.0915 15.15844565232335
XW-2D
1 40907U 15049J   19336.90813171 +.00000487 +00000-0 +28745-4 0  9990
2 40907 097.4703 335.9599 0013764 343.2191 103.9945 15.16049139232343
LILACSAT 2
1 40908U 15049K   19336.94489645 +.00000082 +00000-0 +81671-5 0  9999
2 40908 097.4841 334.6216 0015722 350.6140 039.4266 15.13902813232119
XW-2F
1 40910U 15049M   19336.90626919 +.00000774 +00000-0 +41855-4 0  9992
2 40910 097.4652 338.2208 0014256 334.3982 113.6751 15.17569928232379
XW-2B
1 40911U 15049N   19336.88199576 +.00000547 +00000-0 +31947-4 0  9993
2 40911 097.4717 336.6122 0013582 344.3661 099.6203 15.15977896232230
KAITUO 1B
1 40912U 15049P   19336.87849730 +.00001016 +00000-0 +50398-4 0  9990
2 40912 097.4497 342.0968 0013627 313.8416 130.8603 15.19917661232706
TIANWANG 1C (TW-1C)
1 40926U 15051B   19336.78673475 +.00011903 +00000-0 +15197-3 0  9992
2 40926 097.1144 022.9116 0008935 107.0917 004.8995 15.59370574236169
